Wind_Speed
10 9 10 6 6 16 17 19 29 38 41 42 39 39 30 23 25 28 30 39 42 39 31 30 24 19 16 12 11 10 3 13 22 21 22 24 26 26 26 28 26 23 27 24 22 21 26 29 29
13 6 6 6 9 17 17 18 30 32 32 40 41 39 39 29 26 27 28 34 40 47 39 28 24 17 16 13 12 13 11 5 13 22 14 21 24 30 31 30 30 28 27 28 27 28 30 31 33
6 7 6 4 10 11 15 15 25 29 34 38 41 40 42 31 25 24 31 36 39 43 46 40 28 21 18 16 11 9 12 10 7 14 20 18 17 18 24 30 34 35 32 30 30 31 31 27 24
5 16 5 3 9 8 14 18 22 25 33 36 39 40 42 34 22 21 26 33 38 44 45 43 38 28 20 17 15 10 9 11 10 9 11 13 13 16 19 22 24 25 31 33 30 27 23 18 11
18 10 5 6 8 10 10 17 21 21 29 30 40 39 41 38 24 24 27 26 32 37 43 43 42 34 28 23 18 15 11 9 10 10 9 9 9 11 12 16 16 17 16 15 12 10 7 6 4
9 4 4 6 9 12 12 13 18 17 22 25 35 38 40 36 35 23 26 25 28 34 36 42 40 40 33 27 22 19 11 9 7 9 10 9 8 9 10 9 10 10 10 9 9 9 8 9 7
9 6 2 7 10 11 10 11 15 12 20 25 35 37 39 35 37 28 25 27 30 29 31 36 40 40 39 35 29 27 19 11 5 5 8 9 9 7 7 9 10 7 8 9 9 10 12 11 10
17 3 7 14 4 10 8 11 10 8 18 22 28 33 38 35 35 35 24 28 31 29 30 34 40 39 41 39 33 29 25 20 10 4 5 7 10 10 7 7 6 5 7 11 14 16 13 11 7
20 20 12 11 1 10 10 6 4 10 12 15 20 25 34 35 37 36 31 28 31 30 32 35 37 38 39 40 35 32 29 25 19 11 4 7 10 10 10 9 8 7 11 14 16 15 13 10 4
30 29 23 14 13 15 12 9 7 6 8 12 18 23 30 35 36 35 32 30 30 30 27 34 34 38 39 40 38 34 31 31 25 20 14 9 9 9 10 12 10 11 15 19 17 14 12 6 7
34 36 24 18 15 16 17 14 5 3 5 8 15 19 26 33 34 37 34 31 28 30 28 35 33 38 41 41 39 36 34 33 31 26 21 17 15 12 13 15 14 16 17 18 18 18 13 12 8
40 37 28 22 18 12 14 11 7 4 4 6 12 16 23 28 31 34 34 33 31 29 29 32 33 35 37 40 41 38 36 35 35 30 28 28 24 20 22 20 16 16 19 19 20 18 13 13 11
42 42 33 23 23 17 14 11 8 9 5 4 9 12 19 23 27 29 34 33 30 28 27 32 32 33 33 38 38 42 37 36 35 35 31 29 26 24 21 19 17 17 18 20 21 17 13 12 13
47 45 43 33 25 17 14 12 12 11 8 5 7 10 14 18 25 28 30 33 29 27 27 28 29 32 34 36 38 38 40 37 35 34 35 31 27 25 23 21 18 17 18 20 20 19 14 14 16
47 50 44 34 31 22 21 24 27 17 12 7 8 7 10 13 19 27 26 30 28 27 25 24 26 30 33 35 37 37 37 37 36 34 33 34 28 25 20 17 16 17 21 23 21 20 19 17 16
50 51 49 37 33 31 31 26 27 23 15 14 10 6 6 11 17 23 23 25 28 25 23 23 23 27 30 33 35 38 36 35 34 36 32 31 33 30 27 26 23 22 25 25 26 23 20 18 17
54 53 53 43 38 36 32 31 28 23 16 14 12 7 5 8 12 19 20 23 22 21 22 24 21 22 24 29 34 36 35 35 34 32 33 31 31 32 31 31 29 26 28 26 24 23 20 18 18
59 54 53 51 44 39 36 33 28 24 20 16 13 14 8 7 11 13 11 20 18 18 20 22 23 22 25 27 30 32 31 33 34 34 32 31 29 29 31 31 29 28 27 25 23 23 21 20 18
58 58 54 55 51 44 40 39 34 25 24 20 15 18 13 10 10 6 9 15 16 14 19 20 22 22 25 26 29 29 29 31 30 36 34 31 30 26 26 29 28 26 25 25 24 22 23 17 18
59 58 59 55 56 53 46 42 39 33 30 23 17 16 19 15 8 3 7 14 13 13 15 18 20 22 24 24 25 27 27 28 30 31 32 31 28 26 24 24 26 25 23 23 23 22 18 16 17
64 60 60 59 57 59 56 49 43 35 35 25 21 22 21 15 10 4 4 14 11 9 13 15 17 20 22 24 24 24 24 27 30 27 28 30 28 27 26 24 22 21 19 21 19 19 16 18 22
70 67 59 61 59 61 61 56 51 44 38 29 26 26 24 17 12 6 7 9 8 5 11 14 16 17 19 22 20 21 25 27 28 25 25 26 27 26 25 24 22 19 18 19 20 18 18 21 23
75 70 65 61 64 60 63 62 58 48 41 34 30 31 27 21 17 10 10 10 8 4 7 12 11 15 17 19 19 20 23 23 24 23 23 22 23 24 26 22 22 22 22 20 20 20 20 22 21
80 73 69 65 64 65 64 64 62 53 41 40 36 36 30 25 26 19 17 16 12 9 11 10 8 12 14 15 17 18 18 18 21 19 21 20 20 22 23 23 22 22 22 20 19 19 18 18 19
83 79 75 70 65 71 70 64 62 60 56 47 43 38 36 30 30 30 19 19 17 15 15 9 8 11 14 13 15 14 16 14 20 19 18 22 19 18 21 21 21 22 21 19 18 17 16 14 11
88 84 80 76 73 74 76 68 64 59 56 52 47 39 39 39 29 23 19 23 21 19 18 13 6 10 12 13 11 14 13 11 18 16 17 17 19 18 18 16 18 20 20 18 17 17 17 17 16
89 85 84 82 79 75 69 74 69 61 60 57 46 43 43 40 33 29 23 22 24 22 19 19 18 11 12 13 4 6 10 10 12 14 14 15 14 16 14 16 14 16 18 17 15 15 14 14 14
92 90 86 84 80 78 73 73 75 70 64 61 57 55 48 50 42 41 33 29 29 26 25 21 24 22 18 13 7 4 9 10 8 10 12 14 13 11 11 11 14 14 16 15 15 14 12 11 13
92 92 89 88 84 82 78 74 74 76 71 63 56 58 57 53 51 51 43 34 32 32 25 24 30 28 20 18 12 10 10 8 10 9 7 14 14 9 12 12 10 9 10 11 10 12 12 11 11
86 91 91 89 86 86 82 79 75 75 76 70 65 61 62 59 53 52 44 44 38 32 30 27 33 30 29 25 17 15 11 7 7 8 7 4 9 7 7 14 10 11 8 7 7 6 6 8 8
Wind_Direction
125 86 79 71 27 38 31 41 51 51 43 47 45 36 30 35 31 32 40 33 32 38 41 44 46 53 60 61 71 62 88 196 196 198 207 206 219 229 234 222 235 236 247 253 255 261 276 275 283
106 100 32 45 36 44 45 44 51 43 43 46 44 37 32 37 34 43 38 33 34 39 41 43 53 57 56 53 56 60 62 132 184 193 189 205 210 216 223 232 240 242 246 246 256 267 275 279 280
140 154 116 342 7 20 52 27 54 32 43 47 44 37 33 35 34 46 41 32 34 36 34 43 43 50 52 56 66 71 75 86 131 183 202 203 205 205 215 225 231 237 246 256 259 264 268 269 273
69 146 162 303 23 23 44 24 36 46 40 39 39 35 31 35 34 36 28 30 30 35 36 36 43 47 47 47 59 65 89 94 104 142 176 193 209 226 222 219 221 227 235 245 251 254 256 263 251
125 92 74 342 2 3 33 23 30 51 45 38 29 27 33 33 32 30 35 34 29 33 36 40 42 45 50 52 49 58 75 107 122 126 153 178 181 201 202 208 214 217 216 221 215 207 203 179 155
125 149 59 336 351 3 29 17 32 52 35 32 26 25 31 33 31 36 37 30 32 33 31 35 43 44 44 47 52 46 69 95 116 138 143 157 174 198 209 202 204 208 209 207 194 168 130 111 108
157 160 178 354 10 354 17 13 22 36 24 43 27 24 25 28 29 30 27 25 34 30 33 35 43 43 41 44 47 46 50 53 103 142 169 177 183 178 196 203 216 205 203 178 159 142 132 128 134
169 255 311 307 299 345 14 7 24 47 30 29 25 22 23 18 26 29 23 29 30 35 40 39 36 43 44 41 44 44 44 54 59 83 165 173 180 176 178 183 177 152 150 162 147 143 143 148 135
172 153 170 153 7 246 321 328 9 342 19 13 11 19 7 16 26 28 31 28 25 39 38 38 35 39 42 44 44 48 44 45 51 57 97 159 178 190 192 183 180 166 144 156 151 150 141 154 108
175 184 172 174 195 223 260 252 12 330 353 16 11 21 17 15 25 25 31 31 29 33 33 38 39 39 43 44 44 44 45 42 45 53 66 105 125 141 173 174 156 137 140 145 138 133 130 134 120
192 189 193 204 210 216 243 252 289 250 343 356 8 12 19 15 25 24 27 35 28 32 35 37 42 41 43 45 44 43 45 46 48 56 67 86 109 100 114 121 127 133 138 145 140 127 118 111 101
198 201 197 198 206 228 225 242 259 252 272 328 352 8 26 16 20 26 24 37 32 37 42 39 41 40 40 43 44 44 44 48 50 59 68 79 84 91 101 99 115 125 136 140 138 130 119 109 96
209 200 199 203 212 216 212 226 244 263 304 288 320 8 24 9 16 23 24 31 37 37 40 39 43 42 40 42 43 43 44 48 50 56 68 72 76 86 93 103 113 127 133 141 140 127 121 109 99
208 217 207 210 212 200 213 209 234 243 257 229 282 346 359 359 17 24 25 20 36 35 43 39 44 44 44 43 41 44 43 46 51 56 61 66 75 85 92 93 101 109 126 129 135 131 126 120 109
211 218 221 216 219 220 205 192 189 226 234 247 275 295 358 359 15 14 17 22 24 38 39 39 42 43 46 47 44 45 44 46 53 57 62 68 73 82 86 86 94 110 122 123 128 124 122 119 118
214 214 219 209 210 213 210 209 213 227 227 240 251 259 320 339 14 14 15 16 16 32 40 41 32 42 42 44 44 43 42 45 52 55 59 67 71 74 82 87 96 101 113 120 115 112 111 116 118
217 213 214 211 203 204 210 217 215 220 221 225 233 234 286 316 357 12 5 13 12 23 39 44 34 32 39 41 42 44 41 44 48 55 59 62 71 72 74 82 93 104 114 114 112 110 110 112 107
218 217 214 213 206 204 205 212 209 216 217 209 223 230 252 267 299 354 12 9 10 27 33 42 43 31 34 35 40 42 43 45 45 52 58 61 71 74 75 78 85 99 110 112 108 110 115 116 109
222 218 217 216 210 206 205 207 204 210 221 220 229 221 230 235 265 324 6 360 15 35 37 31 43 41 39 36 38 44 42 45 49 48 54 61 66 77 77 84 88 93 100 105 112 117 113 95 75
224 223 216 217 215 212 212 212 212 208 220 221 225 232 220 228 232 291 328 339 4 24 36 31 36 42 46 39 35 36 48 45 44 49 51 55 63 73 77 84 93 94 96 100 106 108 97 89 85
224 224 221 215 217 215 217 210 208 215 216 219 224 241 237 218 231 221 294 323 325 19 28 28 30 36 39 46 39 38 48 49 43 44 52 56 56 63 73 80 85 93 98 100 101 102 100 98 98
222 223 221 218 217 218 217 217 218 223 213 217 222 230 232 234 222 207 239 291 287 344 9 13 12 26 33 40 41 42 43 49 45 45 47 53 56 60 64 74 82 87 90 91 97 100 98 101 102
222 222 221 220 217 219 221 220 220 220 214 216 223 226 219 233 223 216 247 250 258 283 341 341 348 10 26 26 36 52 50 53 45 48 48 51 55 58 62 64 70 79 84 90 98 103 102 103 102
220 222 222 222 219 219 223 222 220 217 220 221 219 226 222 224 227 231 238 254 251 249 288 308 320 346 4 15 18 33 51 51 46 44 51 52 55 60 58 62 65 68 76 85 88 98 111 110 96
219 219 220 222 220 219 223 223 223 222 225 225 223 224 221 216 229 231 241 249 241 251 263 283 287 311 327 351 5 21 41 55 59 54 54 55 51 61 59 53 64 64 71 76 82 88 99 102 80
217 215 217 218 220 219 220 223 223 221 223 221 218 220 224 214 231 216 229 246 226 232 252 270 284 318 305 327 0 51 39 45 58 60 65 64 55 51 59 58 54 65 71 74 76 84 89 90 80
218 216 216 217 220 221 220 222 225 223 216 214 215 222 222 222 219 218 225 231 225 225 235 264 259 306 293 290 324 99 81 52 53 55 61 59 45 45 50 45 52 54 61 69 69 79 83 90 90
219 218 215 217 218 221 220 222 224 223 222 218 223 226 225 224 217 227 228 235 232 221 239 248 254 267 289 258 256 212 109 94 67 49 62 50 32 32 42 44 44 40 42 52 58 60 60 63 65
222 219 216 216 216 219 220 220 222 225 222 221 217 220 220 225 226 229 228 230 233 229 238 247 255 262 270 241 240 217 161 138 110 80 73 52 34 36 48 34 49 38 33 38 51 58 63 49 51
224 222 218 217 216 218 219 221 221 224 224 221 220 218 219 221 225 225 228 225 229 227 232 236 254 256 266 262 224 215 208 220 183 146 116 107 34 357 15 28 36 46 38 28 37 46 46 62 52
Height
10994 10995 10993 10993 10992 10990 10990 10988 10985 10981 10977 10972 10970 10967 10963 10957 10953 10950 10945 10939 10932 10922 10917 10912 10908 10906 10905 10905 10905 10904 10904 10905 10909 10913 10918 10920 10923 10926 10929 10933 10934 10937 10937 10939 10942 10943 10947 10949 10950
10997 10995 10994 10994 10995 10993 10992 10991 10987 10984 10980 10975 10972 10969 10965 10959 10955 10953 10948 10943 10936 10927 10921 10917 10913 10911 10909 10906 10905 10904 10903 10904 10908 10912 10915 10918 10922 10924 10927 10929 10932 10934 10936 10938 10940 10942 10945 10946 10947
10999 10997 10997 10996 10997 10996 10993 10993 10989 10987 10983 10979 10975 10972 10967 10962 10960 10957 10952 10947 10940 10932 10927 10921 10917 10914 10911 10909 10907 10906 10906 10905 10907 10910 10913 10916 10918 10921 10924 10926 10928 10932 10933 10936 10938 10940 10943 10944 10946
10997 10996 10999 10999 10997 10996 10994 10994 10992 10990 10988 10984 10980 10976 10971 10965 10964 10959 10955 10952 10946 10939 10933 10927 10922 10918 10914 10911 10909 10908 10907 10907 10907 10909 10911 10913 10917 10919 10921 10923 10927 10929 10932 10935 10937 10939 10940 10942 10944
10999 10999 10999 10999 10999 10998 10995 10995 10994 10992 10990 10988 10984 10979 10974 10970 10967 10961 10959 10955 10950 10944 10940 10933 10927 10922 10918 10915 10911 10909 10908 10907 10907 10908 10909 10913 10916 10918 10919 10921 10923 10926 10930 10934 10937 10937 10940 10941 10943
10999 10999 10999 10999 11000 10999 10997 10996 10996 10994 10993 10990 10986 10981 10977 10974 10970 10965 10963 10959 10954 10949 10945 10940 10933 10927 10923 10918 10914 10912 10909 10908 10908 10909 10910 10911 10914 10916 10916 10919 10922 10925 10929 10932 10935 10938 10939 10941 10944
10997 10998 10999 10999 10999 10999 10999 10998 10997 10995 10995 10992 10988 10985 10982 10978 10973 10969 10967 10962 10958 10954 10950 10945 10938 10931 10926 10921 10917 10914 10912 10910 10910 10909 10910 10911 10913 10915 10918 10920 10921 10925 10928 10932 10935 10937 10939 10941 10945
10998 10998 10998 10997 10999 10999 10999 11000 10999 10997 10996 10995 10993 10991 10986 10982 10976 10971 10969 10966 10961 10957 10954 10949 10943 10937 10931 10925 10921 10918 10914 10912 10910 10909 10909 10911 10913 10915 10916 10918 10921 10924 10927 10931 10935 10939 10941 10944 10946
10997 11001 10996 10998 10998 10999 10998 11001 11001 10999 10999 10998 10996 10995 10991 10986 10980 10974 10971 10968 10964 10961 10958 10953 10948 10942 10936 10930 10927 10924 10920 10915 10911 10908 10907 10908 10910 10913 10916 10919 10921 10924 10928 10931 10935 10939 10942 10945 10947
10993 10996 10993 10995 10997 10998 10999 11002 11003 11001 11001 11000 10999 10997 10995 10990 10984 10978 10974 10970 10968 10965 10963 10958 10953 10948 10942 10937 10933 10928 10924 10919 10913 10909 10907 10907 10909 10912 10915 10918 10922 10925 10928 10932 10936 10940 10943 10946 10949
10989 10992 10992 10993 10995 10998 10999 11000 11003 11003 11002 11002 11001 11000 10998 10994 10988 10983 10979 10974 10972 10969 10967 10962 10958 10953 10947 10942 10938 10934 10929 10925 10919 10913 10910 10909 10911 10914 10916 10920 10923 10927 10930 10934 10939 10942 10946 10948 10951
10984 10987 10988 10991 10994 10996 10999 11000 11002 11003 11001 11002 11002 11002 11001 10998 10993 10989 10985 10979 10976 10974 10971 10967 10963 10958 10952 10948 10944 10939 10934 10930 10925 10920 10916 10914 10915 10917 10919 10922 10926 10929 10933 10937 10940 10944 10948 10950 10952
10979 10981 10985 10989 10993 10995 10998 11000 11002 11002 11001 11003 11003 11003 11004 11002 10999 10994 10988 10984 10982 10979 10975 10971 10968 10963 10958 10954 10950 10946 10940 10936 10931 10927 10923 10921 10921 10921 10923 10926 10929 10932 10936 10940 10943 10947 10951 10953 10955
10973 10976 10980 10985 10990 10994 10996 11000 10998 11001 11002 11004 11005 11005 11005 11005 11003 10998 10992 10989 10987 10984 10979 10977 10973 10969 10965 10960 10956 10951 10946 10942 10937 10934 10929 10927 10927 10927 10929 10930 10932 10935 10938 10941 10945 10948 10952 10955 10956
10967 10971 10975 10981 10987 10991 10992 10996 10998 10998 11002 11004 11005 11006 11006 11006 11005 11002 10997 10994 10991 10988 10985 10981 10980 10976 10972 10967 10963 10958 10953 10949 10944 10941 10938 10935 10935 10934 10934 10934 10936 10937 10940 10945 10949 10951 10954 10957 10958
10959 10964 10971 10977 10982 10986 10989 10993 10995 10997 10999 11002 11005 11006 11006 11007 11006 11004 11002 10999 10995 10993 10990 10987 10985 10982 10978 10974 10969 10964 10959 10955 10951 10948 10945 10943 10942 10940 10939 10939 10939 10941 10944 10949 10952 10955 10958 10960 10962
10948 10956 10963 10972 10976 10981 10986 10989 10991 10995 10996 11000 11002 11004 11006 11008 11008 11008 11006 11003 11000 10997 10994 10991 10989 10987 10984 10980 10975 10970 10967 10963 10960 10956 10953 10951 10949 10948 10947 10946 10945 10948 10951 10954 10957 10959 10962 10965 10966
10939 10949 10958 10964 10971 10974 10981 10985 10988 10991 10995 10997 11000 11003 11005 11007 11008 11009 11008 11007 11004 11001 10998 10995 10993 10992 10988 10984 10981 10978 10976 10972 10969 10965 10960 10958 10955 10955 10954 10954 10954 10955 10958 10960 10961 10964 10967 10970 10969
10932 10941 10950 10957 10964 10969 10975 10980 10985 10989 10992 10994 10997 11001 11004 11006 11008 11010 11009 11009 11007 11005 11001 10999 10996 10995 10992 10989 10987 10984 10982 10980 10977 10972 10967 10965 10962 10962 10962 10961 10962 10964 10966 10966 10968 10970 10972 10974 10973
10923 10932 10941 10949 10956 10962 10969 10975 10980 10985 10989 10992 10994 10998 11002 11004 11007 11009 11010 11009 11009 11007 11003 11003 11001 10998 10996 10993 10991 10990 10989 10986 10983 10978 10975 10972 10971 10970 10969 10967 10968 10971 10973 10973 10974 10976 10977 10977 10977
10913 10920 10930 10941 10948 10955 10961 10968 10973 10979 10985 10989 10991 10995 10999 11002 11004 11008 11009 11009 11009 11008 11007 11007 11005 11002 11000 10996 10995 10994 10994 10991 10988 10987 10985 10981 10980 10977 10974 10974 10974 10975 10976 10977 10978 10979 10980 10981 10980
10900 10907 10921 10932 10939 10946 10953 10961 10967 10973 10981 10986 10988 10992 10995 10999 11002 11005 11007 11009 11008 11008 11009 11009 11009 11007 11003 11000 11000 10998 10996 10993 10993 10992 10991 10989 10987 10984 10982 10980 10980 10980 10981 10981 10981 10983 10983 10984 10984
10885 10899 10911 10921 10930 10938 10945 10951 10960 10969 10974 10982 10986 10988 10993 10997 10999 11003 11005 11007 11009 11009 11011 11011 11010 11009 11006 11005 11004 11001 10998 10996 10997 10995 10994 10995 10993 10992 10990 10989 10987 10986 10985 10985 10985 10986 10987 10988 10989
10874 10890 10901 10911 10921 10930 10933 10943 10952 10962 10968 10975 10979 10982 10988 10991 10995 10999 11001 11003 11007 11009 11010 11010 11010 11007 11008 11008 11006 11002 11001 11000 11000 11000 10999 10997 10998 10998 10997 10995 10993 10992 10990 10989 10990 10989 10990 10992 10993
10863 10876 10887 10899 10912 10918 10923 10934 10944 10953 10961 10968 10973 10976 10982 10987 10990 10994 10998 11000 11004 11007 11009 11008 11008 11007 11007 11008 11007 11006 11005 11004 11002 11003 11004 11002 11003 11002 11001 11000 10998 10997 10996 10995 10994 10994 10995 10995 10996
10843 10860 10873 10884 10894 10898 10911 10925 10933 10943 10952 10960 10966 10972 10975 10981 10985 10990 10994 10997 10999 11002 11005 11005 11007 11008 11007 11008 11007 11006 11006 11006 11005 11004 11005 11004 11006 11005 11004 11003 11003 11001 11000 11000 11000 10999 10998 10999 10999
10830 10849 10858 10867 10878 10891 10907 10914 10924 10936 10944 10951 10959 10967 10969 10973 10980 10983 10988 10992 10995 10997 11000 11002 11004 11005 11007 11007 11007 11006 11005 11005 11006 11006 11006 11007 11007 11007 11007 11007 11007 11005 11004 11004 11004 11004 11003 11001 11001
10812 10825 10844 10858 10870 10880 10895 10902 10912 10922 10931 10944 10951 10958 10963 10967 10974 10977 10982 10987 10991 10992 10994 10998 10999 11001 11004 11005 11006 11006 11006 11006 11006 11006 11007 11008 11008 11008 11008 11008 11008 11008 11009 11009 11008 11007 11007 11007 11005
10797 10810 10828 10842 10856 10867 10879 10891 10900 10908 10920 10932 10940 10947 10954 10959 10966 10971 10976 10981 10985 10988 10990 10993 10995 10998 11000 11002 11003 11004 11005 11005 11005 11006 11005 11007 11008 11009 11009 11008 11010 11011 11011 11011 11011 11010 11009 11010 11009
10780 10795 10813 10829 10843 10852 10869 10877 10886 10896 10908 10919 10927 10935 10942 10949 10954 10960 10969 10975 10978 10981 10984 10987 10990 10993 10995 10999 10999 11001 11002 11003 11003 11004 11004 11005 11006 11009 11010 11010 11010 11011 11013 11013 11012 11012 11012 11010 11009